Вернуться в каталог

ONEWEB-0021

АктивенСвязьPO
NORAD 45134·PAYLOAD·🇬🇧 United Kingdom

Запущен Feb 6, 2020 с Baikonur Cosmodrome

Loading…

Ближайшие Пролёты (ближайшие 24 часа)

TLE

СвежийSource: CelesTrak SupGP

Эпоха: Sep 14, 2026, 15:38 UTC

1 45134C 20008D   26257.65190232  .00002284  00000+0  65499-2 0  2574
2 45134  87.8909  18.4665 0001815  98.1202  13.7394 13.10374068    18

Отслеживайте ONEWEB-0021 в реальном времени с AllMySat

Download on the App Store